| time (UTC) | temp C | wind direction | speed KPH | gust KPH | rain 1hr cm | rain 24hr cm | rain mn cm | humidity % | barometer mb |
| 20260508134548 | 12 | 273 | 1.6 | 8.0 | 0.00 | 0.00 | 0.00 | 75 | 1012.8 |
| 20260508133033 | 11 | 249 | 1.6 | 17.7 | 0.00 | 0.00 | 0.00 | 73 | 1012.8 |
| 20260508131536 | 11 | 257 | 1.6 | 16.1 | 0.00 | 0.00 | 0.00 | 74 | 1012.8 |
| 20260508130033 | 11 | 321 | 3.2 | 16.1 | 0.00 | 0.00 | 0.00 | 73 | 1012.8 |
| 20260508124544 | 11 | 184 | 3.2 | 12.9 | 0.00 | 0.00 | 0.00 | 74 | 1012.7 |
| 20260508123047 | 10 | 280 | 4.8 | 12.9 | 0.00 | 0.00 | 0.00 | 74 | 1012.6 |
| 20260508121535 | 10 | 290 | 3.2 | 9.7 | 0.00 | 0.00 | 0.00 | 75 | 1012.7 |
| 20260508120036 | 9 | 280 | 3.2 | 12.9 | 0.00 | 0.00 | 0.00 | 76 | 1012.6 |
| 20260508114537 | 9 | 150 | 3.2 | 9.7 | 0.00 | 0.00 | 0.00 | 78 | 1012.2 |
| 20260508113047 | 9 | 216 | 0.0 | 1.6 | 0.00 | 0.00 | 0.00 | 78 | 1012.0 |
| 20260508111533 | 9 | 101 | 0.0 | 3.2 | 0.00 | 0.00 | 0.00 | 77 | 1011.9 |
| 20260508110038 | 9 | 328 | 3.2 | 14.5 | 0.00 | 0.00 | 0.00 | 77 | 1012.0 |
| 20260508104536 | 9 | 299 | 1.6 | 6.4 | 0.00 | 0.00 | 0.00 | 77 | 1011.8 |
| 20260508103036 | 8 | 242 | 3.2 | 11.3 | 0.00 | 0.00 | 0.00 | 77 | 1011.6 |
| 20260508101535 | 8 | 288 | 3.2 | 14.5 | 0.00 | 0.00 | 0.00 | 77 | 1011.8 |
| 20260508100034 | 8 | 261 | 4.8 | 16.1 | 0.00 | 0.00 | 0.00 | 80 | 1011.7 |
| 20260508094531 | 7 | 229 | 3.2 | 12.9 | 0.00 | 0.00 | 0.00 | 83 | 1011.9 |
| 20260508093044 | 7 | 223 | 1.6 | 6.4 | 0.00 | 0.00 | 0.00 | 83 | 1011.9 |
| 20260508091546 | 7 | 213 | 0.0 | 3.2 | 0.00 | 0.00 | 0.00 | 81 | 1012.0 |
| 20260508090039 | 7 | 229 | 1.6 | 4.8 | 0.00 | 0.00 | 0.00 | 81 | 1012.0 |
| 20260508084534 | 7 | 180 | 1.6 | 6.4 | 0.00 | 0.00 | 0.00 | 80 | 1011.9 |
| 20260508083035 | 7 | 218 | 1.6 | 9.7 | 0.00 | 0.00 | 0.00 | 80 | 1012.1 |
| 20260508081534 | 7 | 252 | 3.2 | 8.0 | 0.00 | 0.00 | 0.00 | 80 | 1012.2 |
| 20260508080039 | 7 | 148 | 1.6 | 8.0 | 0.00 | 0.00 | 0.00 | 80 | 1012.2 |
| 20260508074545 | 7 | 281 | 4.8 | 11.3 | 0.00 | 0.00 | 0.00 | 79 | 1012.2 |
| 20260508073035 | 8 | 282 | 1.6 | 16.1 | 0.00 | 0.00 | 0.00 | 78 | 1012.3 |
| 20260508071537 | 8 | 225 | 3.2 | 9.7 | 0.00 | 0.00 | 0.00 | 77 | 1012.4 |
| 20260508070035 | 8 | 351 | 0.0 | 14.5 | 0.00 | 0.00 | 0.00 | 75 | 1012.4 |
| 20260508064541 | 8 | 287 | 8.0 | 19.3 | 0.00 | 0.00 | 0.00 | 75 | 1012.7 |
| 20260508063038 | 8 | 157 | 1.6 | 11.3 | 0.00 | 0.00 | 0.00 | 75 | 1012.6 |
| 20260508061533 | 7 | 249 | 1.6 | 6.4 | 0.00 | 0.00 | 0.00 | 76 | 1012.5 |
| 20260508060034 | 7 | 0 | 1.6 | 4.8 | 0.00 | 0.00 | 0.00 | 75 | 1012.7 |
| 20260508054532 | 7 | 160 | 3.2 | 14.5 | 0.00 | 0.00 | 0.00 | 75 | 1012.8 |
| 20260508053032 | 7 | 0 | 1.6 | 8.0 | 0.00 | 0.00 | 0.00 | 76 | 1012.9 |
| 20260508051531 | 7 | 178 | 0.0 | 3.2 | 0.00 | 0.00 | 0.00 | 75 | 1012.9 |
| 20260508050036 | 8 | 156 | 0.0 | 1.6 | 0.00 | 0.00 | 0.00 | 73 | 1013.0 |
| 20260508044535 | 8 | 0 | 0.0 | 6.4 | 0.00 | 0.00 | 0.00 | 72 | 1013.0 |
| 20260508043040 | 8 | 161 | 1.6 | 3.2 | 0.00 | 0.00 | 0.00 | 70 | 1013.0 |
| 20260508041533 | 8 | 257 | 0.0 | 4.8 | 0.00 | 0.00 | 0.00 | 69 | 1013.2 |
| 20260508040035 | 9 | 278 | 3.2 | 6.4 | 0.00 | 0.00 | 0.00 | 68 | 1013.1 |
| 20260508034533 | 9 | 126 | 3.2 | 11.3 | 0.00 | 0.00 | 0.00 | 68 | 1013.1 |
| 20260508033035 | 9 | 235 | 1.6 | 6.4 | 0.00 | 0.00 | 0.00 | 67 | 1013.1 |
| 20260508031532 | 10 | 201 | 1.6 | 16.1 | 0.00 | 0.00 | 0.00 | 66 | 1013.3 |
| 20260508030041 | 9 | 192 | 1.6 | 14.5 | 0.00 | 0.00 | 0.00 | 67 | 1013.5 |
| 20260508024539 | 8 | 284 | 1.6 | 14.5 | 0.00 | 0.00 | 0.00 | 68 | 1013.6 |
| 20260508023035 | 8 | 242 | 1.6 | 11.3 | 0.00 | 0.00 | 0.00 | 71 | 1013.4 |
| 20260508021541 | 7 | 214 | 0.0 | 8.0 | 0.00 | 0.00 | 0.00 | 74 | 1013.4 |
| 20260508020034 | 6 | 0 | 0.0 | 3.2 | 0.00 | 0.00 | 0.00 | 77 | 1013.3 |
| 20260508014532 | 6 | 0 | 0.0 | 1.6 | 0.00 | 0.00 | 0.00 | 76 | 1013.2 |
| 20260508013041 | 6 | 0 | 0.0 | 1.6 | 0.00 | 0.00 | 0.00 | 75 | 1013.0 |
| 20260508011536 | 6 | 0 | 0.0 | 0.0 | 0.00 | 0.00 | 0.00 | 72 | 1012.7 |
| 20260508010034 | 7 | 0 | 0.0 | 0.0 | 0.00 | 0.00 | 0.00 | 69 | 1012.6 |
| 20260508004539 | 8 | 0 | 0.0 | 0.0 | 0.00 | 0.00 | 0.00 | 65 | 1012.5 |
| 20260508003038 | 10 | 0 | 0.0 | 1.6 | 0.00 | 0.00 | 0.00 | 61 | 1012.6 |
| 20260508001535 | 11 | 0 | 0.0 | 1.6 | 0.00 | 0.00 | 0.00 | 54 | 1012.4 |
| 20260508000032 | 12 | 0 | 0.0 | 3.2 | 0.00 | 0.00 | 0.00 | 53 | 1012.3 |
| 20260507234534 | 12 | 256 | 3.2 | 11.3 | 0.00 | 0.00 | 0.00 | 52 | 1012.3 |
| 20260507233038 | 12 | 332 | 3.2 | 17.7 | 0.00 | 0.00 | 0.00 | 51 | 1012.4 |
| 20260507231535 | 12 | 304 | 3.2 | 19.3 | 0.00 | 0.00 | 0.00 | 49 | 1012.3 |
| 20260507230031 | 13 | 286 | 3.2 | 17.7 | 0.00 | 0.00 | 0.00 | 53 | 1012.5 |
| 20260507224535 | 13 | 305 | 4.8 | 16.1 | 0.00 | 0.00 | 0.00 | 48 | 1012.6 |
| 20260507223038 | 13 | 279 | 6.4 | 22.5 | 0.00 | 0.00 | 0.00 | 49 | 1012.6 |
| 20260507221536 | 13 | 323 | 4.8 | 17.7 | 0.00 | 0.00 | 0.00 | 50 | 1012.8 |
| 20260507220036 | 13 | 324 | 4.8 | 19.3 | 0.00 | 0.00 | 0.00 | 52 | 1012.5 |
| 20260507214543 | 13 | 319 | 4.8 | 25.7 | 0.00 | 0.00 | 0.00 | 49 | 1012.6 |
| 20260507213034 | 13 | 329 | 4.8 | 17.7 | 0.00 | 0.00 | 0.00 | 50 | 1012.5 |
| 20260507211536 | 13 | 292 | 8.0 | 25.7 | 0.00 | 0.00 | 0.00 | 49 | 1012.5 |
| 20260507210047 | 13 | 268 | 6.4 | 22.5 | 0.00 | 0.00 | 0.00 | 52 | 1012.4 |
| 20260507204537 | 13 | 319 | 9.7 | 25.7 | 0.00 | 0.00 | 0.00 | 58 | 1012.3 |
| 20260507203046 | 13 | 321 | 8.0 | 22.5 | 0.00 | 0.00 | 0.00 | 57 | 1012.3 |
| 20260507201535 | 12 | 321 | 9.7 | 17.7 | 0.00 | 0.00 | 0.00 | 59 | 1012.2 |
| 20260507200036 | 11 | 318 | 3.2 | 12.9 | 0.00 | 0.00 | 0.00 | 68 | 1012.3 |
| 20260507194607 | 11 | 339 | 3.2 | 14.5 | 0.00 | 0.00 | 0.00 | 65 | 1012.4 |
| 20260507193035 | 11 | 290 | 6.4 | 16.1 | 0.00 | 0.00 | 0.00 | 63 | 1012.4 |
| 20260507191541 | 11 | 294 | 6.4 | 16.1 | 0.00 | 0.00 | 0.00 | 60 | 1012.5 |
| 20260507190033 | 12 | 292 | 6.4 | 17.7 | 0.00 | 0.00 | 0.00 | 58 | 1012.7 |
| 20260507184541 | 12 | 16 | 3.2 | 16.1 | 0.00 | 0.00 | 0.00 | 60 | 1012.5 |
| 20260507183037 | 12 | 9 | 6.4 | 19.3 | 0.00 | 0.00 | 0.00 | 61 | 1012.4 |
| 20260507181535 | 12 | 24 | 3.2 | 9.7 | 0.00 | 0.00 | 0.00 | 63 | 1012.6 |
| 20260507180039 | 12 | 260 | 4.8 | 16.1 | 0.00 | 0.00 | 0.00 | 61 | 1012.6 |
| 20260507174542 | 12 | 291 | 3.2 | 14.5 | 0.00 | 0.00 | 0.00 | 60 | 1012.8 |
| 20260507173037 | 12 | 23 | 3.2 | 16.1 | 0.00 | 0.00 | 0.00 | 59 | 1013.0 |
| 20260507171545 | 12 | 327 | 6.4 | 17.7 | 0.00 | 0.00 | 0.00 | 65 | 1013.0 |
| 20260507170040 | 12 | 226 | 6.4 | 17.7 | 0.00 | 0.00 | 0.00 | 64 | 1013.2 |
| 20260507164533 | 12 | 291 | 4.8 | 17.7 | 0.00 | 0.00 | 0.00 | 61 | 1013.0 |
| 20260507163041 | 12 | 296 | 3.2 | 14.5 | 0.00 | 0.00 | 0.00 | 62 | 1013.0 |
| 20260507161546 | 12 | 61 | 1.6 | 16.1 | 0.00 | 0.00 | 0.00 | 64 | 1013.0 |
| 20260507160035 | 12 | 340 | 4.8 | 14.5 | 0.00 | 0.00 | 0.00 | 63 | 1013.1 |
| 20260507154538 | 12 | 10 | 6.4 | 16.1 | 0.00 | 0.00 | 0.00 | 66 | 1013.1 |
| 20260507153043 | 11 | 311 | 4.8 | 17.7 | 0.00 | 0.00 | 0.00 | 65 | 1013.1 |
| 20260507151533 | 12 | 15 | 4.8 | 9.7 | 0.00 | 0.00 | 0.00 | 64 | 1013.2 |
| 20260507150032 | 11 | 38 | 4.8 | 12.9 | 0.00 | 0.00 | 0.00 | 67 | 1013.1 |
| 20260507144534 | 12 | 316 | 3.2 | 9.7 | 0.00 | 0.00 | 0.00 | 66 | 1013.3 |
| 20260507143034 | 11 | 250 | 3.2 | 8.0 | 0.00 | 0.00 | 0.00 | 71 | 1013.1 |
| 20260507141534 | 11 | 214 | 3.2 | 11.3 | 0.00 | 0.00 | 0.00 | 72 | 1013.2 |
| 20260507140039 | 11 | 289 | 3.2 | 12.9 | 0.00 | 0.00 | 0.00 | 72 | 1013.3 |